Preview of NWS' New Version of Forecast
This preview is not operational and should not be used for support decisions.

Regional Weather Roundup (RWR)

Issued by National Weather Service (NWS)

                            
000
ASUS44 KMEG 231710
RWRTN 
TENNESSEE HOURLY STATE WEATHER ROUNDUP
NATIONAL WEATHER SERVICE MEMPHIS TN
1200 PM CDT SAT MAR 23 2019

TNZ002-004-019-021-049-052-054-088>092-231800-
WEST TENNESSEE
  
CITY           SKY/WX    TMP DP  RH WIND       PRES   REMARKS
MEMPHIS INTL   FAIR      61  36  39 E9        30.27F                  
NWS MEMPHIS      N/A     63 N/A N/A MISG        N/A                   
JACKSON        FAIR      60  34  37 VRB3      30.31F                  
DYERSBURG      FAIR      58  36  43 E9        30.30F                  
SOMERVILLE     SUNNY     63  34  34 CALM      30.27F                  
COVINGTON      SUNNY     61  37  41 E9        30.28F                  
UNION CITY     SUNNY     57  30  35 SE6       30.31S                  
BOLIVAR        SUNNY     63  34  34 S6        30.28F                  
PARIS          SUNNY     54  27  35 CALM      30.31F                  
HUNTINGDON     SUNNY     57  28  33 VRB7      30.31F                  
LEXINGTON      SUNNY     57  27  30 E5        30.31S                  
SELMER         SUNNY     59  32  36 E6        30.29F                  
SAVANNAH       SUNNY     63  34  34 CALM      30.30S                  
$$

TNZ008-025-027-028-033-062-065-066-231800-
NORTH MIDDLE TENNESSEE
  
CITY           SKY/WX    TMP DP  RH WIND       PRES   REMARKS
NASHVILLE      FAIR      55  22  27 SE6       30.33F                  
DICKSON        SUNNY     54  21  28 VRB3G15   30.31S                  
CLARKSVILLE    FAIR      53  24  32 SE10      30.33F                  
LEBANON        SUNNY     54  21  28 SE5       30.32F                  
SMYRNA         FAIR      57  25  29 VRB3      30.34F                  
MURFREESBORO   SUNNY     55  23  28 VRB5      30.30F                  
COOKEVILLE     SUNNY     54  18  24 CALM      30.31F                  
GALLATIN       SUNNY     55  23  28 NE6       30.36F                  
CROSSVILLE     FAIR      52  11  19 VRB3      30.30F                  
ROCKWOOD       SUNNY     52  10  19 CALM      30.30F                  
$$

TNZ061-075-076-078-094-096-097-231800-
SOUTH MIDDLE TENNESSEE
  
CITY           SKY/WX    TMP DP  RH WIND       PRES   REMARKS
LAWRENCEBURG   SUNNY     55  28  35 CALM      30.30S                  
LEWISBURG      SUNNY     55  27  33 VRB3      30.31F                  
FAYETTEVILLE   SUNNY     57  25  28 VRB6G13   30.29F                  
TULLAHOMA      SUNNY     55  18  22 VRB5      30.30F                  
WINCHESTER     SUNNY     57  27  30 NE7       30.30F                  
MCMINNVILLE    SUNNY     55  23  28 NE7       30.31F                  
COLUMBIA       SUNNY     55  28  35 E7        30.30F                  
SHELBYVILLE    SUNNY     55  25  30 SE6       30.31F                  
$$

TNZ017-018-042-046-047-231800-
NORTHEAST TENNESSEE
  
CITY           SKY/WX    TMP DP  RH WIND       PRES   REMARKS
TRI CITIES     FAIR      50  21  32 S6        30.31F                  
ELIZABETHTON   FAIR      52  23  32 W8        30.30S                  
GREENEVILLE    SUNNY     50  19  29 SW5       30.31S                  
$$

TNZ012-013-036-069-073-074-231800-
CENTRAL EAST TENNESSEE
  
CITY           SKY/WX    TMP DP  RH WIND       PRES   REMARKS
KNOXVILLE      FAIR      56  21  25 NE12      30.31F                  
OAK RIDGE      FAIR      55  18  23 SE5       30.33F                  
DOWNTOWN KNOXV SUNNY     55  23  28 VRB5      30.33F                  
GATLINBURG     SUNNY     55  18  22 VRB6      30.32S                  
MORRISTOWN     SUNNY     52  16  24 CALM      30.31S                  
JACKSBORO      SUNNY     54  16  22 VRB3      30.35F                  
$$

TNZ083-085-099-231800-
SOUTHEAST TENNESSEE
  
CITY           SKY/WX    TMP DP  RH WIND       PRES   REMARKS
CHATTANOOGA    FAIR      58  23  26 NW3       30.32F                  
DAYTON         SUNNY     55  23  28 CALM      30.32F                  
$$

SKY/WX REPORTED AS FAIR MEANS FEW OR NO CLOUDS BELOW
12 THOUSAND FEET.